{"data":{"norad_id":68048,"intl_designator":"2026-041J","name":"STARLINK-36318","alt_names":[],"object_type":"PAYLOAD","status":"ACTIVE","operator":null,"country":"US","launch_date":"2026-03-02","launch_site_code":"AFETR","launch_vehicle":null,"mission":null,"orbit_class":"UNKNOWN","rcs_meters":null,"size_class":null,"mass_kg":null,"dimensions":null,"purposes":["comms"],"wikipedia_slug":null,"has_3d_model":false,"image_url":null,"decayed_at":null,"tle_current":{"epoch":"2026-05-25T00:19:53.927040Z","epoch_age_seconds":70531,"freshness":"FRESH","line1":"1 68048U 26041J   26145.01381860  .00019034  00000+0  57310-3 0  9999","line2":"2 68048  53.1595  53.9538 0000985  70.0854 290.0254 15.34396645 13096","mean_motion":15.34396645,"eccentricity":9.85e-5,"inclination_deg":53.1595,"raan_deg":53.9538,"arg_perigee_deg":70.0854,"mean_anomaly_deg":290.0254,"bstar":0.0005731,"rev_number":1309,"period_min":93.84796328201,"perigee_km":462.03938824643,"apogee_km":463.38703573819,"semimajor_km":6840.8502119923,"source":"CELESTRAK","updated_at":"2026-05-25T13:38:21.811816Z"}}}